Regional Weather Roundup
Issued by NWS Goodland, KS

Home | Current Version | Previous Version | Graphics & Text | Print | Product List | Glossary On
Versions: 1 2 3 4 5 6 7 8 9 10 11 12 13 14 15 16 17 18 19 20 21 22 23 24 25 26 27 28 29 30 31 32 33 34 35 36 37 38 39 40 41 42 43 44 45 46 47 48 49 50
000
ASUS43 KGLD 031608
RWRGLD

GOODLAND FORECAST AREA HOURLY WEATHER ROUNDUP
NATIONAL WEATHER SERVICE GOODLAND KS
1000 AM MDT MON AUG 03 2015

...OFFICIAL OBSERVATIONS...

CITY           SKY/WX    TMP DP  RH WIND       PRES   REMARKS
GOODLAND KS    MOSUNNY   83  64  52 E7        30.03S
HILL CITY KS   SUNNY     84  66  54 E7        29.98S
IMPERIAL NEB   MOSUNNY   80  59  48 SE9       30.02S
MCCOOK NEB     SUNNY     79  68  69 E8        30.00S
AKRON CO       PTSUNNY   79  61  53 SW5       30.08R
BURLINGTON CO  PTSUNNY   82  63  52 SE8       30.06S
LIMON CO       CLOUDY    74  59  59 CALM      30.12S
$$

...UNOFFICIAL OBSERVATIONS...

CITY           SKY/WX    TMP DP  RH WIND       PRES   REMARKS
COLBY KS       SUNNY     84  68  58 E8        30.02S
NORTON KS      SUNNY     81  63  54 NE8       29.99
SHARON SPRINGS   N/A     83  68  59 E7          N/A
KIT CARSON CO    N/A     81  66  59 MISG        N/A
YUMA CO          N/A     78  66  66 S5          N/A
$$


USA.gov is the U.S. government's official web portal to all federal, state and local government web resources and services.